Regional Weather Roundup
Issued by NWS Bismarck, ND

Home | Current Version | Previous Version | Text Only | Print | Product List | Glossary On
Versions: 1 2 3 4 5 6 7 8 9 10 11 12 13 14 15 16 17 18 19 20 21 22 23 24 25 26 27 28 29 30 31 32 33 34 35 36 37 38 39 40 41 42 43 44 45 46 47 48 49 50
000
ASUS43 KBIS 180420
RWRBIS

NWR BROADCAST TEXT
NATIONAL WEATHER SERVICE BISMARCK ND
1000 PM CST WED DEC 17 2014

NOTE: "FAIR" INDICATES FEW OR NO CLOUDS BELOW 12,000 FEET WITH NO
SIGNIFICANT WEATHER AND/OR OBSTRUCTIONS TO VISIBILITY.


CITY           SKY/WX    TMP DP  RH WIND       PRES   REMARKS
WILLISTON      CLOUDY    20  14  77 SE8       30.07F WCI  10
MINOT          PTCLDY     6   1  80 SE5       30.16F WCI  -3
MINOT AFB      PTCLDY     3   2  94 SE5       30.16F WCI  -6
BISMARCK       CLOUDY    17  12  80 SE8       30.18F WCI   7
DICKINSON      CLOUDY    18  15  88 SE10      30.02F WCI   6
GARRISON         N/A      9   7  92 E7        30.14F WCI  -2
HETTINGER ARPT CLOUDY    18  15  88 S10       30.05F FOG     WCI   6
JAMESTOWN      PTCLDY     7   4  87 SE7       30.22F WCI  -5
BEACH          CLOUDY    19  19 100 S13       30.00F WCI   7
CARRINGTON     FAIR       5   5 100 MISG      30.23S
CROSBY         CLOUDY    18  14  86 S12       30.09S WCI   5
HARVEY         FAIR       7   5  92 SE6       30.21S WCI  -3
HAZEN          CLOUDY    18  10  73 S9        30.14F WCI   6
LINTON         CLOUDY    16  12  86 SE12      30.18S WCI   3
MANDAN         CLOUDY    16  12  86 SE8       30.16F WCI   5
OAKES            N/A      7   7 100 E5        30.25F WCI  -2
RUGBY          FAIR       9   7  92 SE7       30.21F WCI  -3
STANLEY        CLOUDY    16  16 100 S14       30.08S WCI   1
TIOGA          CLOUDY    16  16 100 S13       30.09F WCI   2
WATFORD CITY   CLOUDY    18  16  93 SE9       30.05S WCI   6
$$

CITY           SKY/WX    TMP DP  RH WIND       PRES   REMARKS
GRAND FORKS    PTCLDY     6   3  87 W6        30.33R WCI  -4
GRAND FORKS AF PTCLDY     5   4  98 CALM      30.32S
DEVILS LAKE    PTCLDY     3  -6  66 CALM      30.22S
FARGO          PTCLDY     9   4  80 CALM      30.32S
CANDO          FAIR       1   0  92 SE5       30.24S WCI  -8
CAVALIER       FAIR       7   5  92 CALM      30.31S
GWINNER        CLEAR     10  10 100 MISG      30.27F
LANGDON        FAIR       1   0  92 S8        30.23R WCI -12
ROLLA          FAIR       5   3  92 S10       30.20S WCI -10
WALHALLA         N/A      5   5 100 SE3       30.30S
$$

CITY           SKY/WX    TMP DP  RH WIND       PRES   REMARKS
ABERDEEN       CLOUDY    13   8  81 CALM      30.26S
MOBRIDGE       CLOUDY    18  12  77 S12       30.15S WCI   5
BUFFALO          N/A     21  18  88 S9        29.93S WCI  11
RAPID CITY     CLOUDY    22  20  92 SE3       30.00F
GLASGOW        CLOUDY    24  19  81 SE8       29.97F WCI  15
SIDNEY         CLOUDY    21  18  86 SE6       30.06S WCI  14
WOLF POINT     CLOUDY    24  18  77 SE8       30.02F WCI  15
GLENDIVE       MOCLDY    21  19  93 SE6       30.00S WCI  14
MILES CITY     CLOUDY    25  21  85 SE6       29.96S WCI  18
BAKER          CLOUDY    21  20  96 SE8       29.97F WCI  11
$$

CITY           SKY/WX    TMP DP  RH WIND       PRES   REMARKS
BILLINGS       MOCLDY    30  21  69 SW15      29.93R WCI  19
GREAT FALLS    CLEAR     29  24  82 S12       29.87S WCI  19
REGINA         FLURRIES  18  14  86 S15       30.04F WCI   3
ESTEVAN        FLURRIES  16  12  86 S12       30.09F WCI   3
$$



USA.gov is the U.S. government's official web portal to all federal, state and local government web resources and services.